User: anonymous   Login
Location: Unspecified
(0.0000°N, 0.0000°E)
Time: 02:21:06
(UTC+00:00)
Language:

USA 186 - Orbit

View from above orbital plane
View from above orbital plane
View from above satellite
View from above satellite

Ground track
Ground track

The orbit data is extracted from the following two-line orbital elements,

1 28888U 05042A   17115.80093287 0.00039000  00000-0  14870-3 0    05
2 28888  96.8739 155.4903 0127473 307.1847  52.8152 15.75759885    02
Epoch (UTC): 25 April 2017 19:13:20
Eccentricity: 0.0127473
inclination: 96.8739°
perigee height: 257 km
apogee height: 428 km
right ascension of ascending node: 155.4903°
argument of perigee: 307.1847°
revolutions per day: 15.75759885
mean anomaly at epoch: 52.8152°
orbit number at epoch: 0

The dashed part of the orbit path shows where the satellite is in the earth's shadow,  

DLR